Weather History for Spirit of St Louis, MO

Change the Weather History Date:

Thursday, March 21, 2013

  Actual Average Record
Temperature  
Mean Temperature 28 °F -  
Max Temperature 37 °F 55 °F 100 °F (1997)
Min Temperature 19 °F 32 °F 19 °F (2013)
Degree Days  
Heating Degree Days 37    
Moisture  
Dew Point 13 °F    
Average Humidity 52    
Maximum Humidity 74    
Minimum Humidity 36    
Precipitation  
Precipitation 0.00 in - - ()
Sea Level Pressure  
Sea Level Pressure 30.09 in    
Wind  
Wind Speed 3 mph (NE)    
Max Wind Speed 10 mph    
Max Gust Speed -    
Visibility 10 miles    
Events      
Averages and records for this station are not official NWS values.
T = Trace of Precipitation, MM = Missing Value Source: NWS Daily Summary

Daily Weather History Graph

Daily Weather History Graph

Search for Another Location

Airport:

Trip Planner

Search our weather history database for the weather conditions in past years. The results will help you decide how hot, cold, wet, or windy it might be!

Date:

Astronomy

Mar. 21, 2013 Rise Set
Actual Time 7:04 AM CDT 7:15 PM CDT
Civil Twilight 6:37 AM CDT 7:42 PM CDT
Nautical Twilight 6:06 AM CDT 8:13 PM CDT
Astronomical Twilight 5:35 AM CDT 8:45 PM CDT
Moon 1:49 PM CDT (3/21) 3:22 AM CDT (3/21)
Length of Visible Light 13h 04m
Length of Day
12h 11m
Waxing Gibbous, 69% of the Moon is Illuminated
Mar 21
Waxing Gibbous
Mar 27
Full
Apr 2
Last Quarter
Apr 10
New
Apr 18
First Quarter

Hourly Weather History & Observations

Time (CDT) Temp. Windchill Dew Point Humidity Pressure Visibility Wind Dir Wind Speed Gust Speed Precip Events Conditions
12:54 AM 24.8 °F 20.5 °F 12.2 °F 59% 30.13 in 10.0 mi WNW 3.5 mph - N/A   Clear
1:54 AM 24.1 °F 18.2 °F 10.9 °F 57% 30.16 in 10.0 mi WNW 4.6 mph - N/A   Clear
2:54 AM 23.0 °F - 10.9 °F 60% 30.14 in 10.0 mi Calm Calm - N/A   Clear
3:54 AM 21.9 °F - 10.0 °F 60% 30.13 in 10.0 mi Calm Calm - N/A   Clear
4:54 AM 21.0 °F - 12.9 °F 71% 30.13 in 10.0 mi Calm Calm - N/A   Clear
5:54 AM 21.0 °F 16.2 °F 10.9 °F 65% 30.14 in 10.0 mi West 3.5 mph - N/A   Clear
6:54 AM 19.0 °F - 12.0 °F 74% 30.14 in 10.0 mi Calm Calm - N/A   Clear
7:54 AM 23.0 °F 15.8 °F 12.0 °F 63% 30.15 in 10.0 mi NW 5.8 mph - N/A   Clear
8:54 AM 26.1 °F 19.4 °F 10.9 °F 53% 30.15 in 10.0 mi NW 5.8 mph - N/A   Clear
9:54 AM 27.0 °F 23.0 °F 10.0 °F 49% 30.16 in 10.0 mi Variable 3.5 mph - N/A   Scattered Clouds
10:54 AM 28.0 °F - 10.0 °F 47% 30.16 in 10.0 mi Calm Calm - N/A   Scattered Clouds
11:54 AM 30.9 °F - 10.0 °F 42% 30.14 in 10.0 mi Calm Calm - N/A   Scattered Clouds
12:54 PM 30.9 °F - 10.9 °F 43% 30.11 in 10.0 mi Calm Calm - N/A   Scattered Clouds
1:54 PM 34.0 °F 31.0 °F 10.0 °F 37% 30.08 in 10.0 mi NE 3.5 mph - N/A   Overcast
2:54 PM 36.0 °F 33.3 °F 12.0 °F 37% 30.04 in 10.0 mi Variable 3.5 mph - N/A   Overcast
3:54 PM 37.0 °F 32.4 °F 14.0 °F 39% 30.02 in 10.0 mi Variable 5.8 mph - N/A   Mostly Cloudy
4:54 PM 37.0 °F 33.3 °F 12.9 °F 37% 30.01 in 10.0 mi NNE 4.6 mph - N/A   Mostly Cloudy
5:54 PM 37.0 °F 32.4 °F 12.0 °F 36% 30.02 in 10.0 mi ENE 5.8 mph - N/A   Mostly Cloudy
6:54 PM 35.1 °F 28.6 °F 15.1 °F 44% 30.02 in 10.0 mi NE 8.1 mph - N/A   Scattered Clouds
7:54 PM 30.9 °F 25.2 °F 17.1 °F 57% 30.01 in 10.0 mi East 5.8 mph - N/A   Overcast
8:54 PM 34.0 °F 26.0 °F 18.0 °F 52% 30.02 in 10.0 mi East 10.4 mph - N/A   Overcast
9:54 PM 33.1 °F 26.1 °F 16.0 °F 50% 30.04 in 10.0 mi East 8.1 mph - N/A   Mostly Cloudy
10:54 PM 33.1 °F 26.1 °F 17.1 °F 52% 30.04 in 10.0 mi ESE 8.1 mph - N/A   Overcast
11:54 PM 32.0 °F 26.4 °F 17.6 °F 55% 30.02 in 10.0 mi East 5.8 mph - N/A   Partly Cloudy